Regional Weather Roundup
Issued by NWS

Home | Current Version | Previous Version | Graphics & Text | Print | Product List | Glossary On
Versions: 1 2 3 4 5 6 7 8 9 10 11 12 13 14 15 16 17 18 19 20 21 22 23 24 25 26 27 28 29 30 31 32 33 34 35 36 37 38 39 40 41 42 43 44 45 46 47 48 49 50
000
ASUS45 KBOU 062207
RWRCO

WEATHER ROUNDUP FOR COLORADO
NATIONAL WEATHER SERVICE DENVER/BOULDER CO
400 PM MDT WED MAY 06 2015

NOTE: "FAIR" INDICATES FEW OR NO CLOUDS BELOW 12000 FEET WITH NO
SIGNIFICANT WEATHER AND/OR OBSTRUCTIONS TO VISIBILITY.

COZ001>005-013-030-031-062300-
...NORTHWEST COLORADO...

CITY           SKY/WX    TMP DP  RH WIND       PRES   REMARKS
CRAIG          CLOUDY    56  43  61 W10       29.78F
HAYDEN         CLOUDY    54  39  58 W10       29.78F
MEEKER         LGT RAIN  49  42  77 SW9       29.83S
MOUNT WERNER   NOT AVBL
STEAMBOAT SPGS CLOUDY    51  42  72 NW7       29.79F
WALDEN         CLOUDY    45  41  87 N14       29.80S
$$

COZ006>008-011-062300-
...WEST CENTRAL VALLEYS...

CITY           SKY/WX    TMP DP  RH WIND       PRES   REMARKS
GRAND JUNCTION TSTM      49  44  83 SW7G38    29.81R
MONTROSE       CLOUDY    59  45  59 E9        29.83F
EAGLE          PTSUNNY   50  45  81 SW12      29.85R
RIFLE          CLOUDY    53  46  77 S5        29.83F
DELTA          CLOUDY    61  50  67 NE10      29.81F
NUCLA          CLOUDY    57  43  58 E7        29.85F
$$

COZ017>023-064>068-062300-
...SOUTHWEST COLORADO...

CITY           SKY/WX    TMP DP  RH WIND       PRES   REMARKS
DURANGO        PTSUNNY   62  38  40 SW18G26   29.87F
CORTEZ         PTSUNNY   66  40  38 S13       29.84F
PAGOSA SPRINGS PTSUNNY   56  35  45 SW12G18   29.91F
TELLURIDE      PTSUNNY   48  34  57 SE9       29.97F
WOLF CREEK PAS NOT AVBL
$$

COZ009-010-012-014-032>034-037-058>063-062300-
...CENTRAL COLORADO...

CITY           SKY/WX    TMP DP  RH WIND       PRES   REMARKS
ASPEN          CLOUDY    50  40  68 N8        29.86F
BUENA VISTA    NOT AVBL
COPPER MTN     CLOUDY    37  32  81 W18G24    29.99F
BERTHOUD PASS  PTSUNNY   30  21  69 W29       29.99S WCI  15
COTTONWOOD PAS CLOUDY    45  36  70 W25G36    29.91R
GUNNISON       PTSUNNY   57  34  41 W22G29    29.87F
KREMMLING      CLOUDY    55  41  58 W8        29.81S
LEADVILLE      LGT RAIN  42  35  76 W21       29.90S
MONARCH PASS     N/A     32  32 100 MISG      30.10S THUNDER
SALIDA         CLOUDY    60  35  38 W14G26    29.88S
SUNLIGHT       SNOW      36  36 100 CALM      29.99F VSB 1/4
WILKERSON PASS SNOW      32  32 100 W9G17     29.97S VSB 1/2 WCI  24
$$

COZ069>075-062300-
...SAN LUIS VALLEY/SANGRE DE CRISTO MOUNTAINS...

CITY           SKY/WX    TMP DP  RH WIND       PRES   REMARKS
ALAMOSA        PTSUNNY   59  37  44 VRB7      29.86F
LA VETA PASS   PTSUNNY  N/A N/A N/A MISG      29.95S
SAGUACHE       TSTM      50  43  76 E9        29.87S
$$

COZ035-036-038>040-062300-
...NORTHERN COLORADO FRONT RANGE...

CITY           SKY/WX    TMP DP  RH WIND       PRES   REMARKS
DENVER INTL AP CLOUDY    64  46  52 CALM      29.69S
DMNS CITY PARK   N/A     61  45  56 E3        29.69S
AURORA         PTSUNNY   59  47  64 E3        29.71S
FRONT RANGE AP PTSUNNY   64  48  55 N6        29.70S
ERIE MUNI ARPT CLOUDY    63  47  55 N8        29.68S
BOULDER MUN AP CLOUDY    61  45  55 NE10      29.68S
CENTENNIAL     CLOUDY    59  46  62 E7        29.71S
BROOMFIELD     CLOUDY    61  48  63 VRB7      29.70S
FORT COLLINS   CLOUDY    57  52  82 NW5       29.69S
LONGMONT       CLOUDY    65  50  58 N12       29.70S
$$

COZ041-046-047-076>085-087-088-062300-
...PIKES PEAK/PALMER DIVIDE AND SOUTHERN FOOTHILLS...

CITY           SKY/WX    TMP DP  RH WIND       PRES   REMARKS
COLO. SPRINGS  TSTM      53  45  74 E6        29.76R
A. F. ACADEMY  TSTM      52  46  78 E2        29.74S
ELLICOTT       TSTM     N/A N/A N/A NW5       29.76R
FALCON         CLOUDY    49  45  85 NE3       29.78S
FORT CARSON    CLOUDY    52  48  87 E6        29.71R
LIMON          PTSUNNY   62  45  53 W10       29.71S
MONUMENT HILL  NOT AVBL
TRINIDAD       PTSUNNY   70  41  34 SE5       29.71F
$$

COZ042>045-048>051-090-091-062300-
...NORTHEAST COLORADO...

CITY           SKY/WX    TMP DP  RH WIND       PRES   REMARKS
GREELEY ARPT   CLOUDY    64  64 100 W7        29.67S
AKRON          CLOUDY    60  56  86 W14       29.63F
BURLINGTON     PTSUNNY   62  53  72 SW15      29.65F
WRAY           LGT RAIN N/A N/A N/A SW9G16    29.60S
STERLING       CLOUDY    63  55  77 N12       29.59F
HOLYOKE        NOT AVBL
FORT MORGAN    CLOUDY    64  47  54 NW15      29.64S
$$

COZ086-089-092>099-062300-
...SOUTHEAST COLORADO...

CITY           SKY/WX    TMP DP  RH WIND       PRES   REMARKS
PUEBLO         PTSUNNY   71  47  42 S12G18    29.60F THUNDER
LA JUNTA       SUNNY     77  46  33 CALM      29.61F
LAMAR          PTSUNNY   77  48  35 S10       29.60F
SPRINGFIELD      N/A     64  43  46 NE16G30   29.65F
$$


USA.gov is the U.S. government's official web portal to all federal, state and local government web resources and services.